Powrót do katalogu

STARLINK-31048

AktywnyŁącznośćVLEO
NORAD 58544·PAYLOAD·🇺🇸 United States

Wystrzelony Dec 8, 2023 z Vandenberg Space Force Base

Loading…

Następne Przeloty (najbliższe 24 godziny)

TLE

ŚwieżeSource: CelesTrak SupGP

Epoka: Sep 14, 2026, 22:26 UTC

1 58544C 23192P   26257.93520833  .00045096  00000+0  13320-2 0  2579
2 58544  53.1562 261.5466 0001156  93.9446 124.8069 15.34376600    14

Śledź STARLINK-31048 w czasie rzeczywistym z AllMySat

Download on the App Store